Miscellaneous Local Product
Issued by NWS Hastings, NE

Home | Current Version | Previous Version | Graphics & Text | Print | Product List | Glossary On
Versions: 1 2 3 4 5 6 7 8 9 10 11 12 13 14 15 16 17 18 19 20 21 22 23 24 25 26 27 28 29 30 31 32 33 34 35 36 37 38 39 40 41 42 43 44 45 46 47 48 49 50
332
AXUS43 KGID 151302
MISGRI

GID CWA HOURLY WEATHER ROUNDUP
NATIONAL WEATHER SERVICE HASTINGS NE
800 AM CDT TUE AUG 15 2017

NOTE: "FAIR" INDICATES FEW OR NO CLOUDS BELOW 12,000 FEET WITH NO
SIGNIFICANT WEATHER AND/OR OBSTRUCTIONS TO VISIBILITY.

...SOUTH CENTRAL NEBRASKA...

CITY           SKY/WX    TMP DP  RH WIND       PRES   REMARKS
GRAND ISLAND   CLOUDY    66  64  93 NE15G22   29.89R
HASTINGS       CLOUDY    68  67  96 NE6       29.88R FOG
KEARNEY        CLOUDY    65  64  97 E12       29.87R FOG
ORD            TSTM      65  61  87 SE13      29.86S FOG
YORK           CLOUDY    66  66 100 NE13      29.88S
AURORA         CLOUDY    65  65 100 NE9       29.88S
LEXINGTON      PTSUNNY   67  64  89 E12       29.86R
HOLDREGE       MOSUNNY   67  65  94 E9        29.85S
HEBRON         MOSUNNY   73  71  93 S6        29.84S

...NEBRASKA PANHANDLE...

CITY           SKY/WX    TMP DP  RH WIND       PRES   REMARKS
CHADRON        CLEAR     61  58  90 S5        29.85R
ALLIANCE       CLOUDY    64  62  93 SE9       29.88R
SCOTTSBLUFF    MOCLDY    60  58  92 CALM      29.88R FOG
SIDNEY         CLOUDY    64  64 100 SE8       29.93R FOG

...WESTERN AND NORTH CENTRAL NEBRASKA...

CITY           SKY/WX    TMP DP  RH WIND       PRES   REMARKS
VALENTINE      MOSUNNY   65  61  87 S6        29.86R
AINSWORTH      MOSUNNY   64  63  94 SE12      29.86R
ONEILL         CLOUDY    64  64 100 SE10      29.84F
BROKEN BOW     CLOUDY    66  61  84 E14G22    29.86S
IMPERIAL       CLOUDY    65  64  97 E8        29.85S
NORTH PLATTE   CLOUDY    66  63  90 E15       29.84F
MCCOOK         MOSUNNY   66  65  96 NE7       29.83R

...EASTERN NEBRASKA...

CITY           SKY/WX    TMP DP  RH WIND       PRES   REMARKS
NORFOLK        CLOUDY    63  61  93 E6        29.88R
SO SIOUX CITY  RAIN      64  64 100 NE3       29.92R FOG
TEKAMAH        TSTM      65  63  93 N14       29.91R VSB 1
COLUMBUS       CLOUDY    66  64  93 E7        29.89F
ALBION         LGT RAIN  65  64  95 SE8       29.87F
OMAHA EPPLEY   CLOUDY    71  64  78 SE8       29.86S
OFFUTT AFB     MOSUNNY   69  65  85 SE7       29.85F
MILLARD        CLOUDY    71  66  84 SE5       29.86R
LINCOLN        CLOUDY    70  67  90 N3        29.86R
NEBRASKA CITY  MOSUNNY   69  69 100 SE6       29.87S
BEATRICE       MOSUNNY   72  70  94 SE3       29.85S
FALLS CITY     MOSUNNY   70  69  97 E3        29.85R FOG

...NORTHERN KANSAS...

CITY           SKY/WX    TMP DP  RH WIND       PRES   REMARKS
GOODLAND       FOG       66  66 100 S14       29.85R VSB 1/4
HILL CITY      SUNNY     72  67  84 S6        29.83R
NORTON         SUNNY     68  61  77 E3        29.83
PHILLIPSBURG   SUNNY     72  64  78 E8        29.84R
SMITH CENTER   MOSUNNY   66  64  94 E7        29.86R
HAYS           MOSUNNY   71  68  90 SE9       29.85R
RUSSELL        SUNNY     72  67  84 S10       29.84R
CONCORDIA      CLOUDY    73  71  93 S6        29.86R
SALINA         SUNNY     75  71  87 S9        29.86R
TOPEKA         MOSUNNY   71  71 100 CALM      29.88R



USA.gov is the U.S. government's official web portal to all federal, state and local government web resources and services.